Wind_Speed
5 5 5 5 4 5 5 5 6 6 5 5 5 4 4 4 4 4 4 3 3 2 2 2 3 3 3 4 4 5 5 5 6 6 7 8 8 9 9 10 10 10 11
4 5 5 5 5 5 5 5 5 5 4 5 5 5 4 4 4 4 4 4 3 3 3 2 3 4 4 5 5 6 6 7 7 7 8 8 9 9 10 11 11 12 12
4 4 5 4 4 4 4 3 3 3 3 3 4 4 4 3 3 3 3 3 4 3 3 3 3 3 3 4 5 6 7 8 8 8 9 9 9 10 11 11 12 12 13
2 2 2 3 2 1 1 1 1 1 2 2 2 3 3 3 3 3 3 3 4 4 3 3 4 4 4 5 5 6 7 8 8 9 10 10 11 11 12 13 13 13 14
2 2 3 3 3 2 1 2 1 1 1 1 1 2 3 3 4 4 4 4 5 5 5 5 5 5 5 6 6 7 8 9 9 9 10 11 12 12 13 13 14 14 14
3 3 3 4 3 3 3 3 2 2 2 2 2 3 3 4 4 5 5 5 5 6 6 6 6 6 7 7 8 8 9 9 10 11 12 12 13 13 14 14 14 15 14
4 3 3 4 4 4 4 4 4 3 3 4 4 4 5 5 6 6 6 6 7 7 7 7 8 8 8 9 9 10 10 10 11 12 13 14 14 14 15 15 15 15 15
5 4 4 4 5 5 5 5 5 5 5 5 6 6 7 7 7 7 7 7 8 8 8 9 9 9 10 11 11 12 12 12 13 13 14 14 15 15 16 16 16 15 15
6 5 5 5 6 6 6 6 6 6 6 6 7 7 8 8 9 9 9 9 9 10 10 10 11 11 11 12 12 13 13 14 14 15 15 15 16 16 16 16 16 16 16
7 7 7 7 7 7 8 8 8 7 8 8 9 9 9 10 10 10 11 11 11 11 11 12 12 12 12 13 13 13 14 14 16 16 17 16 16 17 17 17 17 17 17
9 8 8 8 8 9 8 9 10 9 9 9 10 10 11 12 12 12 12 12 12 12 12 13 13 13 13 14 14 15 15 16 17 17 17 17 17 18 18 17 17 18 18
10 9 9 9 10 10 10 11 11 11 11 11 11 12 13 14 14 14 13 14 14 14 14 14 14 15 15 16 16 17 17 17 18 18 17 17 18 18 19 19 19 19 19
13 12 11 11 11 11 12 12 12 12 12 12 12 13 14 15 15 16 15 15 15 15 15 15 16 17 17 17 17 18 18 18 18 18 18 19 19 20 20 21 21 21 21
14 14 13 13 13 14 14 13 14 14 14 14 14 14 15 16 17 17 16 16 16 16 16 17 18 18 18 18 19 19 19 19 19 20 20 21 21 22 22 22 22 22 22
16 16 16 16 16 16 17 16 15 15 15 15 16 16 17 17 18 18 17 16 16 17 18 18 19 20 20 19 20 20 21 20 21 21 21 21 22 22 23 23 23 24 24
18 18 18 19 19 19 19 18 18 17 17 17 17 18 18 19 19 20 19 18 17 18 19 19 20 21 21 21 22 22 22 22 23 23 23 23 23 23 24 24 25 25 25
20 21 22 22 21 21 20 20 19 19 19 18 19 20 20 21 21 21 21 19 19 19 20 20 21 22 22 22 22 23 23 24 24 24 24 25 25 25 25 25 26 26 26
22 23 24 23 23 23 22 22 22 21 20 20 20 21 22 22 23 23 23 22 21 21 21 21 21 22 23 23 23 25 25 24 24 25 25 25 26 26 26 26 26 27 27
24 24 24 25 24 25 25 25 23 22 22 22 22 22 22 24 24 25 24 22 22 22 21 21 22 23 23 24 25 26 26 25 25 26 25 26 26 27 27 27 27 27 27
25 25 25 26 26 27 26 25 24 25 25 24 24 24 24 25 26 25 24 24 24 24 22 23 23 24 25 26 26 27 27 27 27 27 27 27 27 27 27 27 28 28 28
26 26 27 27 27 27 27 26 26 26 26 26 25 25 26 27 26 26 26 26 26 25 25 25 25 26 27 27 28 28 28 28 28 27 27 28 28 28 28 28 28 28 28
28 28 28 27 27 27 27 27 27 28 28 28 28 27 27 27 27 27 27 27 27 27 27 27 27 28 28 29 29 29 28 28 28 28 28 28 28 29 30 29 29 30 29
29 30 29 29 29 28 28 27 27 29 29 29 29 28 28 28 27 27 28 28 28 28 28 28 28 29 29 30 29 28 27 27 28 28 29 29 30 30 30 30 30 30 30
30 30 30 30 29 28 28 27 28 28 28 28 28 27 28 28 28 29 29 29 28 29 29 30 30 30 31 31 29 29 28 28 28 28 29 30 30 30 31 32 31 31 31
30 30 31 29 29 29 29 29 29 29 30 29 29 29 29 29 29 29 29 30 29 29 30 30 31 31 31 31 32 32 31 30 30 30 30 31 31 32 32 32 32 32 32
30 30 29 29 29 29 29 29 29 29 29 29 29 29 29 29 29 30 30 30 30 31 31 31 31 31 31 31 32 32 32 33 33 33 32 33 33 33 33 32 32 32 33
Wind_Direction
51 58 64 65 81 83 90 92 88 81 71 62 59 61 63 52 44 42 39 33 19 354 321 278 266 268 277 281 283 280 280 279 280 284 287 287 288 286 285 284 285 285 286
58 61 69 70 76 84 89 90 86 79 66 56 49 48 49 42 39 40 37 32 23 13 358 315 294 282 283 288 288 286 284 286 284 283 284 288 289 287 284 284 285 283 284
42 58 63 63 68 74 78 80 81 71 56 53 46 37 32 30 26 24 21 17 16 5 356 339 324 314 300 298 295 291 287 290 289 284 284 286 287 287 287 286 285 282 281
3 17 28 31 37 53 74 77 54 56 27 29 35 32 29 22 7 0 357 353 351 345 342 334 328 325 313 310 303 298 295 292 289 285 284 288 290 292 292 289 287 284 283
318 319 323 336 346 336 304 279 294 337 338 310 332 351 355 354 346 338 333 333 332 329 323 318 315 314 307 307 304 306 303 297 292 289 290 292 292 293 295 293 293 290 288
303 305 308 306 306 310 308 303 301 312 323 316 317 332 340 338 336 332 325 324 321 316 313 308 306 306 305 303 303 302 303 299 296 294 294 294 293 295 297 297 296 293 292
292 293 302 296 290 290 301 308 301 299 305 312 317 323 327 329 327 325 323 320 316 313 309 307 304 305 304 300 300 301 301 299 298 296 297 297 293 294 296 297 296 293 291
283 291 304 304 295 291 288 300 304 303 296 300 306 309 313 315 316 317 317 315 311 308 306 308 305 307 306 304 301 300 299 297 296 295 296 298 296 295 294 294 294 291 290
274 280 290 295 299 290 286 290 295 295 298 302 299 297 301 305 305 306 308 308 304 301 300 301 301 303 304 304 304 304 299 296 296 295 293 293 295 297 296 295 294 292 290
268 268 279 287 291 294 287 286 287 287 290 295 294 292 291 294 299 300 303 306 303 300 301 301 301 301 302 302 302 302 301 297 294 292 291 291 292 294 295 295 293 293 292
275 271 276 282 288 295 294 291 287 286 289 293 294 291 290 289 291 294 299 301 301 300 298 297 298 299 299 300 300 300 300 298 295 292 290 290 290 290 291 292 293 292 291
274 276 277 279 284 289 291 292 291 284 285 289 292 293 292 292 291 291 296 300 300 295 291 294 295 295 296 298 299 298 298 297 296 294 291 289 289 289 290 291 291 291 291
271 273 277 280 283 287 288 288 288 286 285 284 285 288 290 292 291 291 294 296 300 298 293 291 294 295 296 297 298 298 296 297 298 296 293 291 290 289 290 289 289 288 289
268 272 275 277 281 284 283 282 284 285 285 282 281 282 286 292 293 294 296 296 298 300 297 294 293 294 294 296 298 298 298 298 298 298 294 291 290 290 289 289 290 289 289
268 270 272 274 279 284 285 280 279 282 282 281 280 282 287 291 294 295 296 297 300 302 300 297 296 296 293 294 296 296 298 297 297 297 296 293 291 289 289 289 290 291 290
269 271 273 277 279 281 283 281 276 278 277 278 281 283 284 289 293 297 297 294 299 300 299 298 297 296 293 291 291 292 294 294 295 295 295 293 293 292 291 290 290 291 291
269 270 273 276 276 278 281 281 280 276 275 278 281 282 283 286 290 295 298 295 297 299 298 299 296 295 294 292 290 290 292 293 294 295 295 292 291 290 291 291 291 292 292
267 269 272 273 275 277 279 280 278 276 275 278 280 281 283 285 286 289 292 292 295 298 296 296 297 293 292 292 291 289 292 294 295 294 293 291 288 288 289 289 291 291 292
266 266 268 270 274 275 276 277 275 275 276 277 279 280 283 284 284 285 286 287 292 295 296 298 297 295 295 294 293 292 292 294 295 295 294 292 290 289 289 289 290 293 294
267 269 269 269 272 274 274 273 273 275 276 277 277 279 282 283 285 285 285 286 288 291 293 297 297 295 295 295 295 294 292 292 292 293 292 291 290 290 291 289 289 291 292
265 268 268 269 269 270 269 270 272 273 275 277 279 278 280 281 282 282 283 285 288 290 290 293 294 292 292 292 293 293 292 291 290 289 290 291 291 292 292 291 290 290 291
265 268 269 270 270 269 267 269 270 272 274 275 277 278 279 280 280 281 282 285 287 288 289 290 292 293 292 291 292 294 294 292 291 291 292 293 294 294 294 292 291 290 290
264 267 269 270 271 270 267 270 272 273 274 275 276 278 277 279 281 282 284 285 286 288 289 289 290 290 291 292 294 295 294 294 293 294 295 294 295 293 292 292 291 290 289
263 265 267 269 271 270 268 269 270 271 274 274 276 278 279 280 280 282 284 286 286 286 287 290 289 288 288 291 292 293 291 292 294 294 294 295 294 294 293 292 291 292 291
262 264 266 268 267 266 267 265 267 270 273 274 276 278 279 280 280 281 283 285 285 285 287 289 289 288 289 290 291 291 290 292 293 293 293 293 293 294 294 292 291 291 291
260 262 264 266 266 266 265 265 267 271 274 276 278 280 280 280 280 281 282 283 284 285 286 287 289 290 290 290 290 290 291 293 292 292 292 293 293 293 293 293 292 292 291
Height
5900 5899 5899 5899 5898 5898 5898 5898 5898 5898 5897 5897 5896 5895 5895 5894 5894 5893 5892 5891 5891 5890 5889 5889 5889 5890 5890 5889 5889 5889 5889 5889 5888 5888 5888 5887 5887 5886 5886 5885 5884 5884 5883
5901 5900 5900 5899 5899 5899 5899 5898 5898 5898 5898 5897 5897 5896 5895 5895 5894 5893 5893 5892 5891 5890 5890 5890 5889 5889 5889 5888 5888 5888 5887 5887 5887 5887 5886 5886 5886 5884 5883 5883 5882 5881 5880
5902 5901 5901 5900 5899 5899 5899 5899 5899 5898 5898 5898 5897 5896 5896 5895 5894 5894 5893 5892 5891 5890 5890 5889 5889 5888 5887 5887 5887 5887 5886 5886 5885 5885 5885 5884 5883 5882 5882 5880 5880 5879 5878
5902 5902 5901 5900 5900 5899 5899 5899 5899 5898 5898 5898 5897 5896 5896 5895 5895 5894 5893 5892 5891 5890 5889 5889 5888 5887 5887 5886 5886 5886 5885 5884 5883 5883 5882 5882 5881 5880 5879 5878 5877 5876 5875
5902 5902 5901 5900 5899 5899 5898 5898 5898 5898 5897 5897 5897 5896 5896 5895 5894 5893 5892 5891 5891 5890 5889 5888 5887 5887 5886 5886 5885 5884 5884 5883 5882 5881 5880 5879 5879 5878 5877 5875 5874 5873 5872
5902 5901 5900 5900 5899 5898 5898 5897 5897 5897 5897 5897 5896 5896 5895 5894 5893 5893 5892 5891 5890 5889 5888 5887 5887 5886 5885 5884 5884 5883 5882 5881 5880 5879 5878 5877 5876 5875 5874 5873 5872 5870 5869
5901 5900 5899 5899 5898 5897 5897 5896 5896 5896 5896 5896 5895 5895 5894 5893 5892 5891 5891 5890 5889 5888 5887 5886 5885 5884 5883 5882 5882 5881 5880 5879 5878 5877 5876 5875 5874 5872 5871 5870 5868 5867 5866
5900 5899 5898 5898 5897 5896 5896 5895 5895 5894 5894 5894 5894 5893 5893 5892 5891 5890 5889 5888 5887 5886 5885 5884 5883 5882 5881 5880 5879 5878 5877 5876 5876 5874 5873 5872 5871 5869 5868 5866 5865 5863 5862
5898 5898 5897 5896 5896 5895 5894 5894 5893 5893 5892 5892 5892 5891 5891 5890 5889 5888 5887 5886 5885 5884 5883 5882 5881 5880 5879 5878 5876 5876 5874 5873 5872 5871 5870 5869 5867 5866 5864 5862 5861 5860 5859
5896 5896 5895 5894 5894 5893 5893 5892 5892 5891 5891 5890 5890 5889 5888 5888 5887 5886 5885 5884 5882 5881 5880 5879 5878 5877 5876 5875 5874 5872 5871 5870 5868 5867 5866 5865 5863 5862 5860 5858 5857 5856 5855
5893 5893 5892 5892 5891 5891 5890 5890 5890 5889 5888 5888 5887 5886 5886 5885 5884 5882 5881 5880 5879 5878 5877 5876 5875 5874 5872 5871 5870 5869 5867 5866 5864 5863 5861 5860 5859 5857 5856 5854 5853 5852 5850
5891 5890 5890 5889 5889 5888 5888 5887 5887 5886 5885 5885 5884 5883 5883 5881 5880 5879 5878 5876 5875 5874 5873 5872 5871 5870 5869 5867 5866 5865 5863 5862 5860 5858 5857 5855 5854 5853 5851 5850 5848 5847 5845
5888 5887 5887 5886 5886 5885 5885 5884 5883 5882 5882 5881 5881 5880 5879 5877 5876 5875 5873 5872 5871 5870 5868 5868 5867 5866 5864 5863 5862 5860 5858 5857 5855 5854 5852 5850 5849 5847 5846 5844 5843 5841 5840
5884 5884 5883 5883 5882 5882 5881 5880 5879 5879 5878 5877 5876 5875 5874 5874 5873 5871 5869 5868 5866 5865 5864 5863 5862 5861 5860 5859 5857 5855 5854 5852 5850 5848 5847 5845 5843 5842 5840 5839 5837 5835 5834
5880 5880 5879 5879 5878 5877 5877 5876 5875 5874 5874 5873 5872 5871 5870 5870 5869 5867 5865 5863 5862 5860 5859 5858 5857 5856 5855 5854 5852 5850 5848 5847 5845 5843 5841 5840 5838 5836 5834 5833 5831 5829 5828
5875 5875 5874 5874 5873 5873 5872 5870 5870 5869 5869 5868 5867 5866 5866 5865 5864 5862 5860 5859 5857 5856 5854 5853 5851 5850 5849 5848 5846 5844 5843 5841 5839 5837 5835 5833 5832 5830 5828 5827 5825 5823 5821
5869 5869 5869 5868 5868 5867 5866 5865 5865 5864 5864 5863 5863 5862 5861 5861 5859 5857 5855 5854 5852 5851 5849 5847 5846 5844 5843 5842 5840 5838 5837 5835 5833 5831 5829 5827 5825 5823 5822 5820 5818 5816 5814
5862 5862 5862 5862 5861 5861 5860 5860 5859 5859 5858 5857 5857 5856 5855 5855 5854 5852 5850 5849 5847 5846 5843 5842 5840 5839 5837 5836 5834 5832 5830 5828 5826 5824 5822 5820 5818 5816 5815 5813 5811 5809 5807
5855 5855 5855 5855 5855 5854 5853 5853 5853 5852 5852 5851 5851 5850 5849 5849 5847 5845 5844 5843 5842 5840 5838 5836 5835 5833 5831 5829 5827 5825 5823 5821 5819 5817 5815 5813 5811 5809 5807 5806 5804 5802 5800
5848 5848 5848 5848 5848 5847 5846 5846 5846 5846 5845 5845 5844 5844 5843 5842 5841 5839 5838 5837 5836 5834 5832 5831 5829 5827 5825 5823 5821 5819 5816 5814 5812 5810 5808 5805 5804 5802 5800 5798 5797 5795 5793
5840 5840 5840 5840 5840 5839 5838 5839 5839 5839 5838 5838 5837 5837 5836 5835 5834 5833 5832 5831 5829 5828 5826 5825 5823 5821 5819 5816 5814 5811 5809 5806 5804 5802 5800 5798 5796 5794 5793 5791 5789 5787 5785
5833 5833 5832 5832 5831 5830 5830 5831 5831 5831 5831 5830 5830 5830 5829 5828 5827 5826 5825 5824 5823 5821 5820 5818 5816 5814 5812 5809 5806 5803 5801 5798 5796 5795 5793 5791 5789 5787 5785 5783 5781 5779 5777
5824 5824 5823 5823 5823 5823 5823 5823 5823 5823 5823 5823 5822 5821 5820 5820 5819 5819 5818 5816 5815 5814 5813 5811 5809 5807 5804 5801 5798 5796 5793 5791 5789 5787 5785 5783 5781 5778 5776 5774 5772 5770 5768
5815 5815 5815 5815 5815 5815 5815 5815 5815 5816 5815 5815 5814 5813 5813 5812 5811 5810 5809 5808 5807 5806 5804 5802 5800 5798 5796 5794 5791 5788 5786 5783 5781 5779 5777 5774 5772 5770 5768 5766 5763 5761 5759
5807 5807 5807 5806 5806 5807 5807 5807 5807 5807 5807 5807 5806 5806 5805 5804 5803 5802 5801 5800 5799 5798 5796 5794 5792 5790 5788 5785 5783 5780 5778 5775 5773 5771 5769 5766 5764 5762 5759 5757 5754 5752 5750
5798 5798 5798 5799 5799 5799 5799 5799 5799 5799 5799 5798 5798 5797 5796 5795 5794 5793 5792 5791 5790 5788 5787 5785 5783 5781 5778 5776 5774 5772 5769 5766 5764 5762 5760 5757 5755 5753 5750 5748 5745 5743 5740